This is the latest recevied weather packets stored in our database for station/object KM4KMS. If no packets are shown the sender has not sent any weather packets the latest 10 day(s).
| Time | Temp. | Humidity | Pressure | Rain* | Wind** | Luminosity | Snow |
|---|---|---|---|---|---|---|---|
| 1777837640 | 16.11° C | 41% | 1016 hPa | 0 mm | - | 598 W/m² | - |
| 1777837335 | 16.11° C | 44% | 1016 hPa | 0 mm | - | 618 W/m² | - |
| 1777837032 | 16.11° C | 42% | 1016.3 hPa | 0 mm | - | 611 W/m² | - |
| 1777836728 | 16.11° C | 44% | 1016.5 hPa | 0 mm | - | 617 W/m² | - |
| 1777836423 | 16.11° C | 40% | 1016.4 hPa | 0 mm | - | 615 W/m² | - |
| 1777836119 | 16.11° C | 43% | 1016.7 hPa | 0 mm | - | 629 W/m² | - |
| 1777835815 | 16.11° C | 43% | 1016.5 hPa | 0 mm | - | 622 W/m² | - |
| 1777835513 | 16.11° C | 43% | 1016.7 hPa | 0 mm | - | 632 W/m² | - |
| 1777835210 | 16.11° C | 43% | 1017 hPa | 0 mm | - | 624 W/m² | - |
| 1777834907 | 15.56° C | 41% | 1017 hPa | 0 mm | - | 612 W/m² | - |
| 1777834603 | 15.56° C | 42% | 1016.8 hPa | 0 mm | - | 641 W/m² | - |
| 1777834298 | 16.11° C | 41% | 1017.1 hPa | 0 mm | - | 661 W/m² | - |
| 1777833994 | 15.56° C | 39% | 1017.1 hPa | 0 mm | - | 645 W/m² | - |
| 1777833690 | 15.56° C | 46% | 1017.3 hPa | 0 mm | - | 612 W/m² | - |
| 1777833387 | 15.56° C | 40% | 1017.1 hPa | 0 mm | - | 616 W/m² | - |
| 1777833084 | 15.56° C | 43% | 1017.5 hPa | 0 mm | - | 647 W/m² | - |
| 1777832782 | 15.56° C | 42% | 1017.3 hPa | 0 mm | - | 660 W/m² | - |
| 1777832481 | 15.56° C | 42% | 1017.5 hPa | 0 mm | - | 640 W/m² | - |
| 1777832177 | 15.56° C | 42% | 1017.5 hPa | 0 mm | - | 661 W/m² | - |
| 1777831874 | 15.56° C | 44% | 1017.6 hPa | 0 mm | - | 658 W/m² | - |
| 1777831571 | 15.56° C | 46% | 1017.8 hPa | 0 mm | - | 663 W/m² | - |
| 1777831269 | 15° C | 46% | 1017.6 hPa | 0 mm | - | 662 W/m² | - |
| 1777830965 | 14.44° C | 46% | 1017.6 hPa | 0 mm | - | 650 W/m² | - |
| 1777830663 | 15° C | 40% | 1017.7 hPa | 0 mm | - | 664 W/m² | - |
| 1777830359 | 15° C | 43% | 1018.1 hPa | 0 mm | - | 672 W/m² | - |
* Rain latest hour (hover to see other rain measurements)
** Current wind speed in m/s (hover to see current wind gust speed)